Date,TemperatureHighF,TemperatureAvgF,TemperatureLowF,DewpointHighF,DewpointAvgF,DewpointLowF,HumidityHigh,HumidityAvg,HumidityLow,PressureMaxIn,PressureMinIn,WindSpeedMaxMPH,WindSpeedAvgMPH,GustSpeedMaxMPH,PrecipitationSumIn
2012-4-27,53.1,45.7,40.8,24.6,19.3,11.2,52,37,19,29.94,29.93,3,0,3,0.00
2012-4-28,43.5,40.8,38.8,37.4,27.5,23.0,81,60,49,29.99,29.94,4,2,4,0.04
2012-4-29,67.6,48.3,27.3,30.5,19.7,7.5,81,42,11,30.07,29.97,5,2,5,0.00
2012-4-30,53.8,48.8,41.7,49.4,41.2,14.3,92,77,27,29.98,29.62,7,1,7,0.48
2012-5-1,63.5,55.5,50.0,52.0,49.4,46.8,96,81,59,29.81,29.64,6,2,6,0.59
2012-5-2,84.9,65.9,51.4,64.9,54.9,47.9,90,71,40,29.72,29.58,12,3,12,0.01
2012-5-3,91.4,77.1,60.4,64.9,59.6,55.7,92,59,31,29.75,29.64,10,3,10,0.00
2012-5-4,81.5,69.7,61.5,63.7,61.2,58.2,94,77,45,29.75,29.67,6,2,6,0.06
2012-5-5,74.7,62.4,55.6,54.1,50.8,48.6,82,67,44,29.85,29.73,5,2,5,0.00
2012-5-6,77.2,64.9,51.8,49.2,36.7,26.8,79,38,19,29.87,29.74,7,2,7,0.00
2012-5-7,68.0,57.6,49.8,57.4,49.2,36.0,92,75,44,29.80,29.54,6,1,6,0.25
2012-5-8,71.6,63.1,53.2,50.2,42.2,39.2,62,47,39,29.59,29.54,9,2,11,0.00
2012-5-9,67.3,54.7,48.2,46.4,43.1,40.4,78,66,45,29.59,29.52,8,1,8,0.02
2012-5-10,68.5,55.5,40.6,43.9,31.2,22.9,87,44,18,29.75,29.59,6,1,6,0.01
2012-5-11,78.6,59.9,42.4,39.2,34.7,24.5,72,43,14,29.92,29.74,10,1,10,0.00
2012-5-12,74.7,59.6,51.8,48.9,41.7,38.1,61,52,38,29.97,29.90,6,1,6,0.00
2012-5-13,73.2,63.3,50.2,56.9,49.6,43.9,89,62,41,29.98,29.85,5,1,5,0.07
2012-5-14,57.2,57.2,57.2,47.9,47.9,47.9,71,71,71,29.88,29.88,0,0,0,0.07
2012-5-15,79.3,70.7,66.4,45.6,43.0,38.5,47,38,24,29.92,29.89,3,0,3,0.00
2012-5-16,69.8,61.2,50.9,53.3,37.9,21.9,82,46,18,30.16,29.91,9,2,9,0.00
2012-5-17,74.8,58.2,40.3,42.6,36.1,25.8,83,49,18,30.26,30.16,8,2,8,0.00
2012-5-18,81.0,61.8,43.5,47.4,39.7,29.0,91,52,17,30.20,30.13,5,1,5,0.00
2012-5-19,90.1,77.8,48.4,53.8,45.6,37.5,88,36,17,30.20,30.13,8,2,8,0.00
2012-5-20,92.8,73.6,54.0,56.7,50.6,11.0,85,49,24,30.22,30.08,11,2,11,0.00
2012-5-21,83.5,68.5,58.5,59.7,55.6,49.7,91,65,41,30.09,30.04,7,2,7,0.05
2012-5-22,73.4,62.4,53.4,52.9,48.8,45.8,85,63,43,30.07,29.95,7,2,7,0.00
2012-5-23,83.5,65.9,47.8,55.5,49.2,42.3,94,60,25,30.01,29.91,8,1,8,0.00
2012-5-24,87.8,72.0,54.3,60.9,56.8,50.5,91,62,38,30.61,29.85,12,2,12,0.00
2012-5-25,92.5,78.5,64.9,61.2,54.3,37.1,69,46,20,30.18,29.90,11,3,11,0.00
2012-5-26,76.8,66.6,58.8,59.3,53.4,13.1,90,63,50,30.40,27.20,7,1,7,0.41
2012-5-27,86.0,71.6,59.9,61.1,56.8,51.4,77,61,41,30.21,30.02,8,2,8,0.00
2012-5-28,90.3,69.7,63.0,67.5,61.8,58.9,90,78,42,30.02,29.95,8,1,8,0.00
2012-5-29,86.5,76.5,68.2,65.6,45.5,32.5,83,37,18,29.88,29.78,9,2,9,0.01
2012-5-30,77.4,66.3,54.1,48.1,43.6,36.4,71,46,24,29.97,29.88,9,2,9,0.00
2012-5-31,69.8,57.2,49.3,48.3,45.4,43.1,91,66,43,30.06,29.90,6,2,6,0.13
2012-6-1,58.1,52.7,48.7,56.0,50.2,45.9,97,91,81,29.91,29.57,11,2,11,0.20
2012-6-2,76.5,60.7,47.1,48.5,41.8,26.3,89,55,18,29.78,28.19,17,4,17,0.00
2012-6-3,82.2,63.7,59.0,51.2,48.4,31.8,73,60,17,29.79,29.75,14,3,14,0.00
2012-6-4,77.5,68.1,52.0,51.9,48.6,45.5,89,51,36,29.97,29.84,7,2,7,0.00
2012-6-5,73.0,61.7,52.0,50.2,46.2,41.7,84,59,35,30.07,29.96,10,2,10,0.00
2012-6-6,82.9,65.2,46.8,50.8,45.2,36.8,95,55,22,30.12,30.05,8,1,8,0.00
2012-6-7,85.8,69.8,52.7,51.6,46.9,39.6,87,50,21,30.13,30.08,8,2,8,0.00
2012-6-8,89.1,73.6,58.6,51.3,45.2,35.8,63,40,18,30.13,29.99,8,2,8,0.00
2012-6-9,92.8,78.0,63.7,52.7,49.4,44.8,59,40,22,30.03,29.96,11,2,11,0.00
2012-6-10,96.3,79.2,61.5,56.4,51.9,47.0,69,42,20,30.12,30.02,10,2,10,0.00
2012-6-11,77.9,71.0,67.1,70.7,63.4,56.3,89,77,56,30.07,29.92,10,1,10,0.14
2012-6-12,83.5,73.6,62.2,66.9,54.1,39.8,94,56,24,30.15,29.85,11,3,11,0.00
2012-6-13,67.3,55.4,49.6,47.7,44.2,41.3,78,67,44,30.24,30.15,3,2,3,0.00
2012-6-14,86.4,71.0,48.9,55.5,48.3,38.8,80,47,20,30.27,30.19,9,2,9,0.00
2012-6-15,90.7,71.0,54.9,60.6,51.1,40.1,83,53,19,30.22,30.19,7,1,7,0.00
2012-6-16,90.9,76.3,62.1,64.6,59.6,55.6,87,59,35,30.25,30.07,11,2,11,0.00
2012-6-17,82.4,75.4,70.0,69.7,65.3,62.0,88,72,55,30.03,29.89,8,2,8,0.21
2012-6-18,85.3,74.7,56.8,68.3,63.5,52.7,94,70,40,30.00,29.86,9,2,9,0.48
2012-6-19,98.8,84.0,70.2,66.8,64.0,61.4,82,53,33,30.12,29.95,11,2,11,0.02
2012-6-20,97.3,84.3,69.3,64.5,59.8,55.8,77,47,26,30.18,30.02,11,2,11,0.11
2012-6-21,95.9,80.2,68.4,68.0,62.6,58.6,80,58,32,30.06,29.89,13,4,13,0.15
2012-6-22,89.1,75.1,62.8,62.6,55.8,44.1,89,56,23,30.06,29.99,7,1,7,0.00
2012-6-23,86.4,63.9,0.0,66.7,54.7,47.6,88,74,29,30.07,29.91,7,0,7,0.09
2012-6-24,90.0,80.8,66.6,59.8,56.6,51.2,69,45,28,29.92,29.77,10,2,10,0.14
2012-6-25,79.7,69.8,59.4,59.7,47.0,34.4,78,48,21,29.91,29.80,8,2,8,0.33
2012-6-26,87.1,70.7,52.3,50.2,44.2,34.1,79,44,18,29.93,29.82,8,1,8,0.11
2012-6-27,93.9,75.9,57.9,59.0,47.1,38.7,73,41,16,29.89,29.70,97,5,97,0.01
2012-6-28,102.9,88.6,65.8,71.7,66.0,48.8,61,48,30,29.75,29.58,10,3,10,0.01
2012-6-29,96.3,84.0,72.3,69.7,61.6,48.1,82,52,21,29.77,29.68,11,2,11,0.00
2012-6-30,97.5,88.1,77.0,64.2,60.0,57.0,58,39,28,29.96,29.89,10,3,10,0.24
2012-7-1,97.3,80.5,64.9,65.3,60.2,56.9,81,53,31,30.77,29.96,11,2,11,0.00
2012-7-2,97.7,81.0,65.1,67.5,63.9,58.5,93,61,28,30.13,30.05,6,1,6,0.19
2012-7-3,90.0,77.7,70.5,73.5,68.5,65.1,89,74,50,30.07,29.92,8,1,8,0.19
2012-7-4,102.7,83.0,69.6,72.0,67.1,62.0,93,64,29,30.00,29.93,14,2,14,0.15
2012-7-5,89.6,78.8,67.6,74.1,68.5,64.5,93,72,48,30.09,29.93,12,1,12,0.66
2012-7-6,104.0,87.4,71.1,75.5,70.1,66.3,90,61,34,30.10,30.02,8,1,8,0.06
2012-7-7,103.5,88.7,77.2,73.3,70.0,62.9,82,57,34,30.11,30.00,9,2,9,0.00
2012-7-8,88.3,77.2,64.2,66.7,59.3,50.4,92,58,28,30.15,30.08,8,1,8,0.19
2012-7-9,89.1,74.3,61.9,62.8,59.0,52.4,89,62,35,30.17,30.09,7,1,7,0.12
2012-7-10,89.8,76.3,64.8,63.0,54.4,45.8,82,51,23,30.24,30.12,8,2,8,0.11
2012-7-11,89.4,70.8,63.7,53.4,50.9,44.0,65,51,24,30.26,30.22,4,0,4,0.00
2012-7-12,93.6,77.5,59.2,62.6,55.1,45.8,80,50,23,30.26,30.19,7,1,8,0.04
2012-7-13,95.7,80.4,65.3,66.1,61.5,55.3,87,57,28,30.25,30.17,9,1,9,0.18
2012-7-14,93.2,78.0,64.6,69.7,63.4,58.8,86,63,38,30.98,30.12,8,1,8,0.14
2012-7-15,96.8,83.0,72.0,69.5,65.1,58.8,86,59,29,30.16,30.05,10,2,10,0.18
2012-7-16,99.5,84.4,70.5,67.7,64.8,56.8,79,54,25,30.12,29.97,7,1,7,0.34
2012-7-17,103.3,88.4,76.3,68.2,64.1,60.0,71,47,27,29.99,29.88,12,3,12,0.14
2012-7-18,93.9,79.9,73.9,72.2,66.5,63.8,84,65,40,30.11,29.94,4,1,4,0.05
2012-7-19,77.2,72.6,70.5,66.4,63.9,60.8,81,74,65,30.08,30.02,4,0,4,0.01
2012-8-12,86.4,77.2,68.7,56.7,53.5,50.5,65,45,31,29.96,29.91,8,2,8,4.37
2012-8-13,82.0,69.6,63.0,62.3,58.0,52.8,89,68,38,29.96,29.89,6,0,6,0.04
2012-8-14,82.9,66.3,61.3,62.4,60.0,53.5,95,82,40,29.89,29.81,4,1,4,0.32
2012-8-15,61.2,59.8,58.5,57.0,56.6,56.1,92,89,86,29.87,29.85,0,0,1,0.00
2012-8-16,83.3,71.0,61.5,64.1,61.5,58.9,94,73,45,29.91,29.72,8,2,8,0.02
2012-8-17,75.6,64.3,60.3,62.4,59.6,55.4,92,85,52,29.85,29.78,5,1,5,0.01
2012-8-18,86.0,66.4,48.9,50.9,42.7,30.5,93,51,16,29.96,29.88,4,1,4,0.00
2012-8-19,82.6,66.4,54.5,52.2,48.0,41.9,84,56,25,29.90,29.82,4,0,4,0.00
2012-8-20,82.2,72.5,55.0,57.4,49.9,43.4,92,48,26,29.93,29.85,7,1,7,0.00
2012-8-21,79.9,65.3,54.0,56.0,53.3,50.6,91,69,36,29.99,29.93,5,2,5,0.00
2012-8-22,90.0,78.2,55.0,56.7,46.7,38.6,94,37,18,30.07,30.01,5,1,5,0.05
2012-8-23,97.2,73.4,54.5,59.3,52.5,46.5,89,55,19,30.08,30.03,6,1,6,0.04
2012-8-24,97.0,75.8,58.6,64.6,56.9,47.9,93,60,21,30.07,30.00,74,1,74,0.00
2012-8-25,97.2,78.2,62.6,65.4,59.0,49.4,91,58,20,30.07,30.03,5,1,5,0.27
2012-8-26,93.9,77.4,64.6,65.8,61.3,59.2,89,61,35,30.09,29.97,6,1,6,0.12
2012-8-27,89.8,75.0,69.4,71.2,66.5,59.3,94,78,42,30.00,29.88,3,0,3,0.65
2012-8-28,85.8,74.4,61.7,58.2,54.2,51.2,87,52,33,30.05,29.99,4,2,4,0.00
2012-8-29,88.3,74.2,56.5,57.7,54.9,50.6,92,56,28,30.06,29.98,5,1,5,0.06
2012-8-30,91.9,71.9,56.1,59.7,55.7,52.3,94,62,27,30.04,29.95,7,1,7,0.17
2012-8-31,96.8,85.8,61.3,67.9,63.7,54.9,81,50,32,30.02,29.94,14,3,14,0.02
2012-9-1,90.9,76.9,68.5,67.5,58.0,51.6,76,53,31,30.07,29.98,115,1,115,0.00
2012-9-2,76.1,73.2,72.9,68.4,61.4,60.4,79,67,65,30.02,29.93,6,0,6,0.00
2012-9-3,75.7,75.7,75.7,68.4,68.4,68.4,78,78,78,29.93,29.93,2,2,3,0.00
2012-9-4,85.1,74.0,68.4,71.0,68.3,65.6,93,83,56,29.88,29.80,2,0,2,0.99
2012-9-5,82.8,73.3,65.1,71.6,66.5,63.7,97,80,58,29.84,29.73,4,1,4,0.06
2012-9-6,91.0,75.4,66.6,66.3,62.1,52.4,94,67,27,29.86,29.77,4,1,4,0.00
2012-9-7,86.2,71.5,60.3,64.3,58.2,55.4,89,65,38,29.86,29.64,4,1,4,0.05
2012-9-8,74.3,63.3,55.6,58.7,52.9,45.9,96,73,38,29.78,29.59,5,2,113,0.31
2012-9-9,75.0,72.6,61.3,47.3,45.6,45.5,60,38,35,29.91,29.78,7,3,7,0.00
2012-9-10,75.0,75.0,75.0,45.5,45.5,45.5,35,35,35,30.08,29.99,7,7,7,0.00
2012-9-11,75.0,75.0,75.0,45.5,45.5,45.5,35,35,35,30.08,30.08,7,7,7,0.00
2012-9-13,87.4,79.7,71.1,57.8,52.4,48.9,63,40,27,30.14,30.11,5,2,5,0.00
2012-9-14,76.1,60.3,53.2,58.3,53.5,43.3,95,82,31,30.20,30.15,4,2,4,0.35
2012-9-16,83.8,71.7,57.2,52.9,46.9,40.4,76,45,23,30.03,29.96,4,1,4,0.09
2012-9-17,79.9,69.1,53.2,58.3,51.3,47.4,81,56,36,29.96,29.67,4,1,4,0.00
2012-9-18,55.0,54.8,54.7,36.8,36.0,35.4,50,49,48,29.77,29.76,4,4,4,0.04
2012-9-19,66.7,58.7,54.7,35.4,33.5,29.8,48,40,25,29.93,29.77,4,4,4,0.04
2012-9-21,75.2,63.1,46.6,50.6,39.1,28.7,93,49,19,29.84,29.71,6,3,6,0.11
2012-9-22,61.3,51.4,43.9,50.5,46.2,41.8,96,83,55,29.98,29.65,5,1,5,0.08
2012-9-23,62.2,50.0,42.3,44.6,39.2,33.6,96,70,36,30.11,29.98,7,1,7,0.00
2012-9-24,68.4,54.7,38.1,38.9,32.5,24.2,90,49,19,30.10,29.85,8,3,8,0.00
2012-9-25,70.2,57.8,44.6,53.4,42.6,34.2,78,58,42,29.87,29.78,54,3,54,6.05
2012-9-26,72.5,63.9,53.8,61.3,53.1,43.1,81,68,59,30.06,29.88,3,1,3,0.00
2012-9-27,71.8,57.4,47.1,44.5,42.3,39.8,84,60,32,30.13,30.06,6,1,6,0.00
2012-9-28,57.7,57.7,57.7,43.5,43.5,43.5,59,59,59,30.09,30.07,0,0,0,0.00
2012-9-29,78.4,65.0,49.6,45.0,41.6,30.7,84,45,19,30.00,29.85,5,1,5,0.09
2012-9-30,60.3,53.0,47.1,49.3,46.2,43.6,94,79,58,29.87,29.82,5,1,5,0.09
2012-10-1,61.2,59.0,59.0,45.6,45.6,44.4,61,61,61,29.85,29.78,2,2,4,0.00
2012-10-2,72.5,59.5,52.7,54.7,51.1,46.4,95,75,48,29.83,29.72,4,1,4,0.12
2012-10-3,67.1,61.2,56.3,58.8,54.4,52.4,94,79,63,29.96,29.81,4,1,4,0.00
2012-10-4,60.6,58.2,55.9,53.7,53.2,52.8,89,84,78,29.98,29.97,0,0,1,0.00
2012-10-5,62.8,54.2,44.2,57.5,46.6,40.8,95,76,59,29.98,29.89,6,3,6,0.18
2012-10-6,47.3,45.9,41.7,43.1,37.9,35.0,96,74,63,29.91,29.85,8,4,8,0.20
2012-10-16,69.1,62.8,51.6,37.0,35.7,33.1,57,37,29,29.91,29.77,6,2,6,1.13
2012-10-17,78.3,61.1,48.9,55.7,46.5,41.4,96,64,27,29.74,29.54,10,2,10,0.26
2012-10-18,64.0,51.8,47.3,55.7,40.3,28.9,97,66,29,29.64,29.37,8,1,8,0.24
2012-10-19,57.9,51.0,44.6,43.2,39.3,36.4,79,65,49,29.64,29.51,53,2,53,0.01
2012-10-20,57.0,52.1,45.5,45.4,40.6,38.7,92,66,54,29.87,29.55,99,2,99,0.12
2012-10-21,45.5,40.1,36.5,41.9,37.6,34.4,96,91,87,30.00,29.86,2,1,3,0.00
2012-10-22,72.0,58.1,39.9,55.0,49.7,38.9,97,76,55,30.05,29.93,2,1,2,0.04
2012-10-23,77.4,63.2,57.6,60.2,57.7,56.5,97,83,49,29.98,29.87,4,0,4,0.30
2012-10-24,84.7,66.2,57.6,60.0,57.7,56.0,96,76,40,30.00,29.95,8,1,8,0.02
2012-10-25,83.3,65.7,52.0,57.9,52.8,50.1,94,66,35,29.98,29.84,14,2,14,0.00
2012-10-26,68.9,50.4,43.3,53.8,40.9,33.5,90,71,57,30.20,29.84,14,3,14,0.06
2012-10-27,60.8,46.0,38.1,37.0,32.1,26.4,80,60,29,30.17,30.09,9,3,9,0.00
2012-10-28,49.5,41.9,36.5,35.1,29.3,25.3,77,62,45,30.17,30.07,16,4,16,0.00
2012-10-29,42.6,41.0,38.3,30.9,28.0,23.3,66,60,49,30.07,29.67,17,6,17,0.00
2012-10-30,41.7,37.4,34.3,35.5,31.3,26.8,86,78,66,29.67,29.42,17,8,17,0.05
2012-12-21,33.1,32.4,31.1,21.9,19.6,17.7,63,59,57,30.10,29.92,21,9,21,2.05
2012-12-22,38.1,30.3,25.2,20.6,17.4,14.2,72,58,41,30.30,30.10,18,5,18,0.00
2012-12-23,34.2,22.5,18.7,19.7,14.4,11.2,78,71,53,30.23,30.13,6,1,6,0.00
2012-12-24,34.0,27.9,22.3,24.8,19.1,13.1,82,69,60,30.24,30.05,4,2,4,0.00
2012-12-25,33.3,28.8,23.2,21.1,18.3,16.0,76,65,55,30.52,30.22,4,3,4,0.01
2012-12-26,36.7,26.5,24.8,22.8,19.8,17.5,79,76,60,30.48,30.06,11,4,11,0.00
2012-12-27,27.9,26.8,25.9,21.6,19.8,17.5,78,75,66,30.32,30.08,9,4,9,0.00
2012-12-28,33.1,22.7,14.4,20.7,13.7,7.0,76,68,59,30.40,30.17,3,1,3,0.00
2012-12-29,31.5,27.0,23.0,22.1,19.0,13.3,78,72,65,30.26,30.04,5,2,5,0.00
2012-12-30,29.3,23.6,15.3,20.9,14.1,6.6,76,67,57,30.51,30.28,7,2,7,0.00
2012-12-31,35.6,28.0,15.4,23.5,17.3,7.1,73,64,53,30.40,30.16,11,4,11,0.00
2013-1-1,30.2,20.3,13.5,13.3,2.9,-2.4,61,47,26,30.38,30.23,6,2,6,0.01